ALCOMSAT 1

Last updated on Sun Apr 12 2026 00:02:54 GMT+0000 (Coordinated Universal Time)

1 43039U 17078A 26101.44450167 -.00000184 00000+0 00000+0 0 9995 2 43039 0.0488 79.9348 0002435 281.6798 333.2612 1.00273391 30623
UTC large
Height (km)
Speed (km/s)
/
Latitude / Longitude
Inclination (degrees)
Orbital Period (minutes)
Azimuth
Elevation
Range (km)
Doppler Factor

Next 0 passes for location: London (51.5072 / 0.1276)

Sorry there are no passes over London.
ALCOMSAT 1